User: anonymous   Login
Location: Napier
(39.4830°S, 176.9170°E)
Time: 22:49:43
(UTC+13:00)
Language:

H-2A R/B - Orbit

View from above orbital plane
View from above orbital plane
View from above satellite
View from above satellite

Ground track
Ground track

The orbit data is extracted from the following two-line orbital elements,

1 27601U 02056E   19295.76940404 +.00000046 +00000-0 +31713-4 0  9998
2 27601 098.2610 338.4045 0070929 268.1769 201.3583 14.31913478880534
Epoch (UTC): 22 October 2019 18:27:56
Eccentricity: 0.0070929
inclination: 98.2610°
perigee height: 734 km
apogee height: 836 km
right ascension of ascending node: 338.4045°
argument of perigee: 268.1769°
revolutions per day: 14.31913478
mean anomaly at epoch: 201.3583°
orbit number at epoch: 88053

The dashed part of the orbit path shows where the satellite is in the earth's shadow,  

DLR